Regional Weather Roundup
Issued by NWS

Home | Current Version | Previous Version | Text Only | Print | Product List | Glossary Off
Versions: 1 2 3 4 5 6 7 8 9 10 11 12 13 14 15 16 17 18 19 20 21 22 23 24 25 26 27 28 29 30 31 32 33 34 35 36 37 38 39 40 41 42 43 44 45 46 47 48 49 50

000
ASUS43 KOAX 291410
RWRNE

WEATHER ROUNDUP FOR NEBRASKA
NATIONAL WEATHER SERVICE OMAHA NE
900 AM CDT SAT AUG 29 2015

NOTES: SATELLITE DATA IS BEING USED TO AUGMENT CLOUD COVER ABOVE
       12000 FEET.
       "FAIR" INDICATES FEW OR NO CLOUDS BELOW 12,000 FEET WITH NO
       SIGNIFICANT WEATHER AND/OR OBSTRUCTIONS TO VISIBILITY.

  * THESE STATIONS DO NOT REPORT WEATHER SUCH AS RAIN...SNOW OR FOG.

NEZ001>004-019>022-054>056-291500-
NEBRASKA PANHANDLE

CITY           SKY/WX    TMP DP  RH WIND       PRES   REMARKS
SCOTTSBLUFF    SUNNY     58  51  78 E5        30.18R
ALLIANCE       SUNNY     57  51  80 CALM      30.17R
CHADRON        SUNNY     60  50  69 CALM      30.11R HAZE
KIMBALL        SUNNY     56  46  67 W3        30.22S
SIDNEY         SUNNY     59  46  62 W5        30.22R
$$

NEZ057>060-069>072-079>082-291500-
SOUTHWEST NEBRASKA

CITY           SKY/WX    TMP DP  RH WIND       PRES   REMARKS
NORTH PLATTE   SUNNY     59  56  89 CALM      30.15S
IMPERIAL       SUNNY     62  56  80 W5        30.17S
LEXINGTON      SUNNY     61  60  97 W3        30.13S
MCCOOK         SUNNY     61  58  90 SW3       30.14R
OGALLALA       SUNNY     57  56  97 CALM      30.16F
$$

NEZ005>010-023>029-035>040-094-291500-
NORTH CENTRAL NEBRASKA

CITY           SKY/WX    TMP DP  RH WIND       PRES   REMARKS
VALENTINE      MOSUNNY   60  58  92 CALM      30.09R
AINSWORTH      SUNNY     64  62  91 SW5       30.10R
BROKEN BOW     SUNNY     61  58  90 CALM      30.12S
O`NEILL        SUNNY     61  60  98 CALM      30.10S
ORD            MOSUNNY   57  57 100 CALM      30.11S
THEDFORD       SUNNY     63  63  99 W3        30.14R
$$

NEZ041-046>049-061>064-073>077-083>087-291500-
SOUTH CENTRAL NEBRASKA

CITY           SKY/WX    TMP DP  RH WIND       PRES   REMARKS
GRAND ISLAND   FOG       58  58 100 N5        30.13R VSB 1/4
AURORA         CLOUDY    60  60 100 NW5       30.11S FOG
HASTINGS       FOG       60  59  96 N6        30.12R VSB 1/4
HEBRON         CLOUDY    60  58  90 N8        30.09S
HOLDREGE       SUNNY     60  59  96 CALM      30.13S
KEARNEY *      SUNNY     59  55  88 N5        30.13S
YORK           CLOUDY    59  59 100 N5        30.11S
$$

NEZ011>018-030>034-042>045-291500-
NORTHEAST NEBRASKA

CITY           SKY/WX    TMP DP  RH WIND       PRES   REMARKS
NORFOLK        CLOUDY    59  57  93 W3        30.10R FOG
ALBION         FOG       56  55  95 CALM      30.12R VSB<1/4
BLAIR          CLOUDY    60  58  94 N7        30.07R
COLUMBUS *     CLOUDY    61  52  72 CALM      30.10S
FREMONT        CLOUDY    62  59  90 N3        30.08S
TEKAMAH        CLOUDY    62  60  93 N6        30.07S
WAYNE          CLOUDY    59  58  96 CALM      30.10R
$$

NEZ050>053-065>068-078-088>093-291500-
SOUTHEAST NEBRASKA

CITY           SKY/WX    TMP DP  RH WIND       PRES   REMARKS
LINCOLN        CLOUDY    61  59  93 N10       30.08S
OMAHA EPPLEY   CLOUDY    62  60  93 N8        30.06S
BEATRICE       CLOUDY    62  60  96 N7        30.06S
FALLS CITY     CLOUDY    64  63  96 N10       30.02R
NEBRASKA CITY  CLOUDY    61  61  99 N8        30.05R FOG
PLATTSMOUTH    CLOUDY    61  59  93 N5        30.05S FOG
$$

NEZ044-045-051>053-067-291500-
OMAHA AREA

CITY           SKY/WX    TMP DP  RH WIND       PRES   REMARKS
OMAHA EPPLEY   CLOUDY    62  60  93 N8        30.06S
BLAIR          CLOUDY    60  58  94 N7        30.07R
FREMONT        CLOUDY    62  59  90 N3        30.08S
MILLARD        CLOUDY    62  59  91 N6G16     30.06S
OFFUTT AFB     CLOUDY    62  60  93 N8        30.05S FOG
PLATTSMOUTH    CLOUDY    61  59  93 N5        30.05S FOG
WAHOO          CLOUDY    61  59  93 N6        30.08S
$$



USA.gov is the U.S. government's official web portal to all federal, state and local government web resources and services.